BAW17PA EGKK-TAPA

Flight info

Callsign BAW17PA
Flight time N/A
Altitude 38000
Route IMVUR N63 SAM N19 ADKIK DCT JOZMA DCT GAPLI/M082F380 DCT OMOKO DCT 48N015W 46N020W 41N030W 35N040W/M082F400 28N050W 24N055W 19N060W/N0468F400 DCT BEVAD
Aircraft B772/H-SDE2E3FGHIJ5LORVWXY/LB1D1

Departure

Time N/A
Airport London Gatwick Airport (EGKK)

Arrival

Time 2026-05-05 19:47
Airport V. C. Bird International Airport (TAPA)
Time Latitude Longitude Altitude Speed Heading
2026-05-05 17:19 28.44947 -49.42904 40238 ft 445 kts 232°
2026-05-05 17:19 28.40835 -49.48159 40258 ft 445 kts 232°
2026-05-05 17:20 28.36715 -49.53418 40258 ft 446 kts 232°
2026-05-05 17:20 28.32589 -49.58678 40240 ft 446 kts 232°
2026-05-05 17:21 28.28462 -49.63932 40237 ft 446 kts 232°
2026-05-05 17:22 28.22272 -49.71802 40234 ft 446 kts 232°
2026-05-05 17:22 28.18139 -49.77047 40238 ft 446 kts 232°
2026-05-05 17:23 28.14011 -49.82281 40248 ft 445 kts 232°
2026-05-05 17:23 28.09885 -49.87506 40249 ft 445 kts 232°
2026-05-05 17:24 28.05757 -49.92726 40234 ft 445 kts 232°
2026-05-05 17:24 28.01623 -49.97950 40233 ft 445 kts 232°
2026-05-05 17:25 27.97523 -50.03194 40224 ft 444 kts 233°
2026-05-05 17:25 27.93516 -50.08504 40241 ft 444 kts 233°
2026-05-05 17:26 27.89512 -50.13829 40240 ft 444 kts 233°
2026-05-05 17:26 27.85496 -50.19142 40241 ft 445 kts 233°
2026-05-05 17:27 27.81500 -50.24408 40218 ft 444 kts 233°
2026-05-05 17:27 27.77473 -50.29704 40239 ft 444 kts 233°
2026-05-05 17:28 27.73445 -50.34995 40234 ft 445 kts 233°
2026-05-05 17:28 27.69412 -50.40286 40236 ft 445 kts 233°
2026-05-05 17:29 27.65377 -50.45574 40231 ft 445 kts 233°
2026-05-05 17:29 27.61340 -50.50857 40234 ft 444 kts 233°
2026-05-05 17:30 27.57302 -50.56136 40231 ft 444 kts 233°
2026-05-05 17:30 27.53264 -50.61407 40237 ft 444 kts 233°
2026-05-05 17:31 27.49220 -50.66680 40230 ft 445 kts 233°
2026-05-05 17:31 27.45175 -50.71949 40232 ft 445 kts 233°
2026-05-05 17:32 27.41127 -50.77215 40233 ft 445 kts 233°
2026-05-05 17:32 27.37074 -50.82480 40234 ft 445 kts 233°
2026-05-05 17:33 27.33019 -50.87742 40221 ft 445 kts 233°
2026-05-05 17:33 27.28960 -50.93002 40234 ft 445 kts 232°
2026-05-05 17:34 27.24900 -50.98258 40231 ft 445 kts 232°
2026-05-05 17:34 27.20836 -51.03513 40223 ft 446 kts 232°
2026-05-05 17:35 27.16764 -51.08771 40228 ft 446 kts 232°
2026-05-05 17:35 27.12723 -51.13982 40232 ft 446 kts 232°
2026-05-05 17:36 27.08626 -51.19261 40228 ft 445 kts 232°
2026-05-05 17:36 27.04580 -51.24467 40226 ft 445 kts 232°
2026-05-05 17:37 27.00507 -51.29701 40218 ft 445 kts 232°
2026-05-05 17:37 26.96424 -51.34942 40221 ft 446 kts 232°
2026-05-05 17:38 26.92341 -51.40176 40231 ft 446 kts 232°
2026-05-05 17:38 26.88255 -51.45409 40227 ft 446 kts 232°
2026-05-05 17:39 26.84162 -51.50643 40207 ft 446 kts 232°
2026-05-05 17:39 26.80068 -51.55874 40221 ft 446 kts 232°
2026-05-05 17:40 26.75976 -51.61095 40229 ft 447 kts 232°
2026-05-05 17:40 26.72570 -51.65435 40222 ft 447 kts 232°
2026-05-05 17:41 26.68470 -51.70656 40218 ft 446 kts 232°
2026-05-05 17:41 26.64371 -51.75868 40216 ft 446 kts 232°
2026-05-05 17:42 26.60266 -51.81082 40219 ft 447 kts 232°
2026-05-05 17:42 26.56161 -51.86291 40217 ft 447 kts 232°
2026-05-05 17:43 26.52052 -51.91497 40215 ft 446 kts 232°
2026-05-05 17:43 26.47945 -51.96695 40214 ft 447 kts 232°
2026-05-05 17:44 26.43834 -52.01892 40215 ft 447 kts 232°
2026-05-05 17:44 26.39716 -52.07092 40219 ft 447 kts 232°
2026-05-05 17:45 26.35596 -52.12289 40212 ft 447 kts 232°
2026-05-05 17:45 26.31501 -52.17447 40203 ft 447 kts 232°
2026-05-05 17:46 26.27350 -52.22670 40212 ft 447 kts 232°
2026-05-05 17:46 26.23251 -52.27822 40212 ft 448 kts 232°
2026-05-05 17:47 26.19121 -52.33007 40214 ft 447 kts 232°
2026-05-05 17:47 26.14992 -52.38185 40201 ft 447 kts 232°
2026-05-05 17:48 26.10862 -52.43357 40212 ft 447 kts 232°
2026-05-05 17:48 26.06728 -52.48529 40213 ft 447 kts 232°
2026-05-05 17:49 26.02587 -52.53704 40217 ft 448 kts 232°
2026-05-05 17:49 25.98444 -52.58875 40212 ft 448 kts 231°
2026-05-05 17:50 25.94302 -52.64039 40201 ft 448 kts 231°
2026-05-05 17:50 25.90160 -52.69198 40205 ft 448 kts 231°
2026-05-05 17:51 25.86004 -52.74367 40208 ft 448 kts 231°
2026-05-05 17:51 25.81878 -52.79493 40211 ft 448 kts 231°
2026-05-05 17:52 25.77725 -52.84648 40195 ft 448 kts 231°
2026-05-05 17:52 25.73565 -52.89804 40201 ft 448 kts 231°
2026-05-05 17:53 25.69403 -52.94958 40203 ft 448 kts 231°
2026-05-05 17:53 25.65239 -53.00109 40201 ft 449 kts 231°
2026-05-05 17:54 25.61072 -53.05257 40201 ft 448 kts 231°
2026-05-05 17:54 25.56904 -53.10400 40196 ft 449 kts 231°
2026-05-05 17:55 25.52734 -53.15539 40204 ft 449 kts 231°
2026-05-05 17:55 25.48556 -53.20684 40199 ft 449 kts 231°
2026-05-05 17:56 25.44379 -53.25821 40200 ft 449 kts 231°
2026-05-05 17:56 25.40202 -53.30953 40198 ft 449 kts 231°
2026-05-05 17:57 25.36022 -53.36082 40196 ft 449 kts 231°
2026-05-05 17:57 25.31846 -53.41201 40197 ft 448 kts 231°
2026-05-05 17:58 25.27671 -53.46313 40195 ft 448 kts 231°
2026-05-05 17:58 25.23497 -53.51417 40185 ft 448 kts 231°
2026-05-05 17:59 25.19317 -53.56524 40190 ft 448 kts 231°
2026-05-05 17:59 25.15132 -53.61632 40195 ft 449 kts 231°
2026-05-05 18:00 25.10970 -53.66705 40199 ft 449 kts 231°
2026-05-05 18:00 25.06772 -53.71817 40195 ft 450 kts 231°
2026-05-05 18:01 25.02569 -53.76930 40195 ft 450 kts 231°
2026-05-05 18:01 24.98362 -53.82041 40194 ft 450 kts 231°
2026-05-05 18:02 24.94149 -53.87155 40197 ft 450 kts 231°
2026-05-05 18:02 24.89937 -53.92261 40188 ft 450 kts 231°
2026-05-05 18:03 24.85726 -53.97360 40177 ft 450 kts 231°
2026-05-05 18:03 24.81510 -54.02460 40188 ft 450 kts 230°
2026-05-05 18:04 24.77290 -54.07560 40186 ft 450 kts 230°
2026-05-05 18:04 24.73068 -54.12655 40187 ft 450 kts 230°
2026-05-05 18:05 24.68844 -54.17749 40201 ft 450 kts 230°
2026-05-05 18:05 24.64620 -54.22836 40196 ft 451 kts 230°
2026-05-05 18:06 24.60388 -54.27928 40182 ft 451 kts 230°
2026-05-05 18:06 24.56182 -54.32982 40183 ft 451 kts 230°
2026-05-05 18:07 24.51947 -54.38066 40198 ft 451 kts 230°
2026-05-05 18:07 24.47711 -54.43147 40172 ft 451 kts 230°
2026-05-05 18:08 24.43472 -54.48224 40184 ft 451 kts 230°
2026-05-05 18:08 24.39226 -54.53306 40169 ft 452 kts 230°
2026-05-05 18:09 24.34984 -54.58377 40188 ft 451 kts 230°
2026-05-05 18:09 24.30735 -54.63452 40189 ft 451 kts 230°
2026-05-05 18:10 24.26487 -54.68518 40185 ft 451 kts 230°
2026-05-05 18:10 24.22239 -54.73581 40183 ft 452 kts 230°
2026-05-05 18:11 24.17981 -54.78649 40184 ft 452 kts 230°
2026-05-05 18:11 24.13724 -54.83712 40182 ft 452 kts 230°
2026-05-05 18:12 24.09469 -54.88767 40182 ft 451 kts 230°
2026-05-05 18:12 24.05208 -54.93824 40177 ft 452 kts 230°
2026-05-05 18:13 24.00976 -54.98842 40181 ft 452 kts 230°
2026-05-05 18:13 23.96508 -55.03754 40188 ft 453 kts 226°
2026-05-05 18:14 23.91945 -55.08515 40180 ft 453 kts 226°
2026-05-05 18:14 23.87412 -55.13237 40169 ft 453 kts 226°
2026-05-05 18:15 23.82855 -55.18003 40176 ft 454 kts 226°
2026-05-05 18:15 23.78301 -55.22774 40177 ft 454 kts 226°
2026-05-05 18:16 23.73735 -55.27556 40182 ft 455 kts 226°
2026-05-05 18:16 23.69174 -55.32327 40176 ft 454 kts 226°
2026-05-05 18:17 23.64611 -55.37094 40169 ft 454 kts 226°
2026-05-05 18:17 23.60047 -55.41859 40173 ft 454 kts 226°
2026-05-05 18:18 23.55481 -55.46620 40171 ft 454 kts 226°
2026-05-05 18:18 23.50910 -55.51381 40173 ft 455 kts 226°
2026-05-05 18:19 23.46336 -55.56141 40180 ft 454 kts 226°
2026-05-05 18:19 23.41766 -55.60892 40171 ft 454 kts 226°
2026-05-05 18:20 23.37197 -55.65638 40171 ft 454 kts 226°
2026-05-05 18:20 23.32631 -55.70375 40169 ft 453 kts 226°
2026-05-05 18:21 23.28063 -55.75109 40170 ft 453 kts 226°
2026-05-05 18:21 23.23499 -55.79835 40166 ft 453 kts 226°
2026-05-05 18:22 23.18930 -55.84562 40171 ft 454 kts 226°
2026-05-05 18:22 23.14354 -55.89290 40167 ft 454 kts 226°
2026-05-05 18:23 23.09807 -55.93984 40169 ft 454 kts 226°
2026-05-05 18:23 23.05226 -55.98709 40165 ft 454 kts 226°
2026-05-05 18:24 23.00640 -56.03433 40163 ft 455 kts 226°
2026-05-05 18:24 22.96022 -56.08187 40168 ft 455 kts 226°
2026-05-05 18:25 22.91427 -56.12912 40167 ft 455 kts 226°
2026-05-05 18:25 22.86858 -56.17605 40167 ft 456 kts 226°
2026-05-05 18:26 22.82253 -56.22331 40158 ft 456 kts 226°
2026-05-05 18:26 22.77644 -56.27057 40165 ft 456 kts 226°
2026-05-05 18:27 22.73029 -56.31784 40169 ft 457 kts 226°
2026-05-05 18:27 22.68412 -56.36508 40165 ft 456 kts 226°
2026-05-05 18:28 22.61494 -56.43579 40151 ft 455 kts 226°
2026-05-05 18:28 22.56889 -56.48279 40159 ft 455 kts 226°
2026-05-05 18:29 22.53058 -56.52187 40166 ft 455 kts 226°
2026-05-05 18:29 22.48444 -56.56888 40166 ft 456 kts 226°
2026-05-05 18:30 22.43827 -56.61588 40164 ft 456 kts 226°
2026-05-05 18:30 22.39212 -56.66282 40149 ft 456 kts 225°
2026-05-05 18:31 22.34596 -56.70972 40162 ft 456 kts 225°
2026-05-05 18:31 22.29972 -56.75666 40159 ft 456 kts 225°
2026-05-05 18:32 22.25348 -56.80356 40159 ft 456 kts 225°
2026-05-05 18:32 22.20719 -56.85045 40163 ft 456 kts 225°
2026-05-05 18:33 22.16089 -56.89731 40147 ft 456 kts 225°
2026-05-05 18:33 22.11488 -56.94384 40154 ft 456 kts 225°
2026-05-05 18:34 22.06855 -56.99065 40155 ft 457 kts 225°
2026-05-05 18:34 22.02219 -57.03745 40155 ft 457 kts 225°
2026-05-05 18:35 21.97582 -57.08420 40155 ft 457 kts 225°
2026-05-05 18:35 21.92940 -57.13097 40149 ft 457 kts 225°
2026-05-05 18:36 21.88296 -57.17771 40154 ft 457 kts 225°
2026-05-05 18:36 21.83652 -57.22441 40152 ft 457 kts 225°
2026-05-05 18:37 21.79007 -57.27108 40152 ft 457 kts 225°
2026-05-05 18:37 21.74363 -57.31769 40149 ft 457 kts 225°
2026-05-05 18:38 21.69713 -57.36431 40145 ft 457 kts 225°
2026-05-05 18:38 21.65056 -57.41097 40153 ft 457 kts 225°
2026-05-05 18:39 21.60403 -57.45754 40145 ft 457 kts 225°
2026-05-05 18:39 21.55747 -57.50410 40146 ft 457 kts 225°
2026-05-05 18:40 21.51091 -57.55062 40146 ft 457 kts 225°
2026-05-05 18:40 21.46438 -57.59706 40139 ft 457 kts 225°
2026-05-05 18:41 21.41775 -57.64356 40149 ft 457 kts 225°
2026-05-05 18:41 21.37113 -57.69001 40149 ft 458 kts 225°
2026-05-05 18:42 21.32446 -57.73647 40149 ft 457 kts 225°
2026-05-05 18:42 21.27783 -57.78284 40143 ft 457 kts 225°
2026-05-05 18:43 21.23118 -57.82919 40146 ft 457 kts 225°
2026-05-05 18:43 21.18457 -57.87546 40143 ft 457 kts 225°
2026-05-05 18:44 21.13797 -57.92168 40143 ft 456 kts 225°
2026-05-05 18:44 21.09137 -57.96785 40142 ft 456 kts 225°
2026-05-05 18:45 21.04480 -58.01396 40140 ft 456 kts 225°
2026-05-05 18:45 20.99826 -58.06000 40136 ft 455 kts 225°
2026-05-05 18:46 20.95171 -58.10601 40144 ft 456 kts 225°
2026-05-05 18:46 20.90538 -58.15175 40140 ft 456 kts 225°
2026-05-05 18:47 20.85871 -58.19779 40141 ft 457 kts 225°
2026-05-05 18:47 20.81202 -58.24382 40137 ft 456 kts 225°
2026-05-05 18:48 20.76533 -58.28980 40131 ft 456 kts 225°
2026-05-05 18:48 20.71864 -58.33573 40137 ft 456 kts 225°
2026-05-05 18:49 20.67193 -58.38166 40138 ft 457 kts 225°
2026-05-05 18:49 20.62513 -58.42763 40135 ft 457 kts 225°
2026-05-05 18:50 20.57835 -58.47352 40134 ft 457 kts 225°
2026-05-05 18:50 20.53159 -58.51938 40129 ft 457 kts 225°
2026-05-05 18:51 20.48480 -58.56521 40132 ft 456 kts 225°
2026-05-05 18:51 20.43800 -58.61102 40130 ft 456 kts 225°
2026-05-05 18:52 20.39119 -58.65680 40131 ft 457 kts 225°
2026-05-05 18:52 20.34439 -58.70252 40128 ft 457 kts 225°
2026-05-05 18:53 20.29759 -58.74822 40124 ft 457 kts 224°
2026-05-05 18:53 20.25062 -58.79403 40132 ft 457 kts 224°
2026-05-05 18:54 20.20369 -58.83977 40131 ft 458 kts 224°
2026-05-05 18:54 20.15688 -58.88535 40129 ft 458 kts 224°
2026-05-05 18:55 20.10981 -58.93115 40126 ft 459 kts 224°
2026-05-05 18:55 20.06268 -58.97697 40117 ft 459 kts 224°
2026-05-05 18:56 20.01556 -59.02273 40123 ft 459 kts 224°
2026-05-05 18:56 19.96838 -59.06851 40126 ft 459 kts 224°
2026-05-05 18:57 19.92124 -59.11423 40127 ft 459 kts 224°
2026-05-05 18:57 19.87407 -59.15992 40124 ft 459 kts 224°
2026-05-05 18:58 19.82691 -59.20557 40115 ft 458 kts 224°
2026-05-05 18:58 19.77975 -59.25119 40118 ft 459 kts 224°
2026-05-05 18:59 19.73256 -59.29679 40120 ft 459 kts 224°
2026-05-05 18:59 19.68528 -59.34244 40118 ft 459 kts 224°
2026-05-05 19:00 19.63800 -59.38805 40120 ft 459 kts 224°
2026-05-05 19:00 19.59071 -59.43364 40120 ft 459 kts 224°
2026-05-05 19:01 19.54342 -59.47919 40118 ft 460 kts 224°
2026-05-05 19:01 19.49606 -59.52477 40118 ft 460 kts 224°
2026-05-05 19:02 19.44861 -59.57039 40118 ft 461 kts 224°
2026-05-05 19:02 19.40113 -59.61602 40117 ft 461 kts 224°
2026-05-05 19:03 19.35364 -59.66160 40114 ft 461 kts 224°
2026-05-05 19:03 19.30609 -59.70722 40111 ft 461 kts 224°
2026-05-05 19:04 19.25859 -59.75275 40116 ft 461 kts 224°
2026-05-05 19:04 19.21101 -59.79832 40114 ft 461 kts 224°
2026-05-05 19:05 19.16341 -59.84386 40112 ft 461 kts 224°
2026-05-05 19:05 19.11583 -59.88936 40112 ft 461 kts 224°
2026-05-05 19:06 19.06824 -59.93484 40100 ft 461 kts 224°
2026-05-05 19:06 19.02055 -59.98032 40108 ft 462 kts 223°
2026-05-05 19:07 18.97778 -60.01424 40110 ft 464 kts 213°
2026-05-05 19:07 18.91190 -60.05350 40110 ft 465 kts 211°
2026-05-05 19:08 18.85581 -60.08686 40106 ft 466 kts 211°
2026-05-05 19:08 18.79944 -60.12064 40107 ft 466 kts 211°
2026-05-05 19:09 18.74310 -60.15450 40105 ft 466 kts 211°
2026-05-05 19:09 18.68684 -60.18830 40108 ft 466 kts 211°
2026-05-05 19:10 18.63050 -60.22212 40100 ft 466 kts 211°
2026-05-05 19:10 18.57422 -60.25586 40101 ft 465 kts 211°
2026-05-05 19:11 18.51830 -60.28937 40094 ft 465 kts 211°
2026-05-05 19:11 18.46200 -60.32307 40102 ft 466 kts 211°
2026-05-05 19:12 18.40569 -60.35676 40098 ft 466 kts 211°
2026-05-05 19:12 18.34932 -60.39045 40098 ft 466 kts 211°
2026-05-05 19:13 18.29296 -60.42411 40098 ft 466 kts 211°
2026-05-05 19:13 18.23655 -60.45779 40097 ft 466 kts 211°
2026-05-05 19:14 18.18966 -60.48575 40097 ft 466 kts 211°
2026-05-05 19:14 18.13324 -60.51938 40095 ft 466 kts 211°
2026-05-05 19:15 18.07685 -60.55297 40093 ft 466 kts 211°
2026-05-05 19:15 18.02043 -60.58655 40092 ft 466 kts 211°
2026-05-05 19:16 17.96404 -60.62008 40087 ft 466 kts 211°
2026-05-05 19:16 17.90767 -60.65358 40087 ft 466 kts 211°
2026-05-05 19:17 17.85127 -60.68708 40085 ft 466 kts 211°
2026-05-05 19:17 17.79482 -60.72058 40085 ft 466 kts 211°
2026-05-05 19:18 17.73840 -60.75403 40081 ft 466 kts 211°
2026-05-05 19:18 17.68235 -60.78726 40083 ft 466 kts 211°
2026-05-05 19:19 17.62588 -60.82070 40084 ft 466 kts 211°
2026-05-05 19:19 17.59903 -60.83931 40075 ft 462 kts 223°
2026-05-05 19:19 17.57826 -60.86453 40082 ft 455 kts 239°
2026-05-05 19:20 17.54532 -60.92133 40085 ft 458 kts 240°
2026-05-05 19:20 17.51176 -60.97814 40088 ft 460 kts 239°
2026-05-05 19:21 17.47756 -61.03508 40079 ft 462 kts 239°
2026-05-05 19:21 17.44313 -61.09209 40080 ft 463 kts 239°
2026-05-05 19:22 17.40864 -61.14911 40078 ft 463 kts 239°
2026-05-05 19:22 17.37422 -61.20601 40076 ft 462 kts 239°
2026-05-05 19:23 17.33982 -61.26286 40075 ft 461 kts 239°
2026-05-05 19:23 17.30550 -61.31952 40077 ft 461 kts 239°
2026-05-05 19:24 17.27137 -61.37581 39579 ft 455 kts 239°
2026-05-05 19:24 17.25445 -61.40371 39088 ft 453 kts 239°
2026-05-05 19:24 17.23760 -61.43146 38565 ft 451 kts 239°
2026-05-05 19:25 17.22084 -61.45907 38046 ft 449 kts 239°
2026-05-05 19:25 17.20418 -61.48652 37546 ft 446 kts 239°
2026-05-05 19:25 17.18763 -61.51375 37126 ft 441 kts 239°
2026-05-05 19:25 17.17117 -61.54084 36474 ft 443 kts 239°
2026-05-05 19:26 17.15464 -61.56803 35859 ft 444 kts 239°
2026-05-05 19:26 17.13806 -61.59529 35255 ft 445 kts 239°
2026-05-05 19:26 17.12151 -61.62249 34672 ft 445 kts 239°
2026-05-05 19:26 17.10486 -61.64986 34096 ft 446 kts 239°
2026-05-05 19:27 17.08822 -61.67719 33428 ft 446 kts 239°
2026-05-05 19:27 17.07156 -61.70455 32790 ft 446 kts 238°
2026-05-05 19:27 17.05491 -61.73188 32169 ft 446 kts 238°
2026-05-05 19:27 17.03661 -61.75779 31522 ft 443 kts 225°
2026-05-05 19:28 17.01199 -61.77689 30927 ft 442 kts 207°
2026-05-05 19:28 16.98358 -61.78767 30341 ft 441 kts 191°
2026-05-05 19:28 16.95317 -61.79015 29692 ft 439 kts 175°
2026-05-05 19:28 16.92344 -61.78403 29019 ft 436 kts 160°
2026-05-05 19:29 16.89661 -61.76965 28340 ft 433 kts 144°
2026-05-05 19:29 16.87479 -61.74818 27704 ft 431 kts 128°
2026-05-05 19:29 16.85953 -61.72141 27069 ft 430 kts 112°
2026-05-05 19:29 16.85185 -61.69154 26457 ft 429 kts 97°
2026-05-05 19:30 16.85206 -61.66044 25860 ft 429 kts 83°
2026-05-05 19:30 16.85892 -61.63027 25268 ft 429 kts 70°
2026-05-05 19:30 16.87292 -61.60338 24682 ft 426 kts 57°
2026-05-05 19:30 16.88973 -61.57804 24132 ft 424 kts 57°
2026-05-05 19:31 16.90625 -61.55279 23564 ft 422 kts 58°
2026-05-05 19:31 16.92235 -61.52729 22894 ft 420 kts 58°
2026-05-05 19:31 16.93825 -61.50178 22231 ft 414 kts 56°
2026-05-05 19:31 16.95753 -61.47984 21558 ft 411 kts 37°
2026-05-05 19:32 16.98230 -61.46527 20942 ft 409 kts 20°
2026-05-05 19:32 17.00966 -61.45778 20312 ft 406 kts
2026-05-05 19:32 17.03778 -61.45722 19692 ft 403 kts 353°
2026-05-05 19:32 17.06488 -61.46382 19090 ft 400 kts 338°
2026-05-05 19:33 17.08923 -61.47737 18489 ft 396 kts 324°
2026-05-05 19:33 17.10920 -61.49697 17831 ft 394 kts 309°
2026-05-05 19:33 17.12364 -61.52119 17145 ft 393 kts 295°
2026-05-05 19:33 17.13179 -61.54838 16478 ft 392 kts 281°
2026-05-05 19:34 17.13324 -61.57682 15824 ft 392 kts 267°
2026-05-05 19:34 17.12920 -61.60493 15204 ft 391 kts 257°
2026-05-05 19:34 17.11921 -61.63119 14560 ft 386 kts 239°
2026-05-05 19:35 17.09042 -61.67767 13269 ft 380 kts 238°
2026-05-05 19:35 17.07645 -61.70077 12584 ft 380 kts 238°
2026-05-05 19:35 17.06225 -61.72405 11908 ft 381 kts 237°
2026-05-05 19:35 17.04794 -61.74735 11248 ft 381 kts 237°
2026-05-05 19:36 17.03358 -61.77061 10601 ft 381 kts 237°
2026-05-05 19:36 17.01923 -61.79383 9964 ft 380 kts 236°
2026-05-05 19:36 17.00484 -61.81708 9256 ft 380 kts 236°
2026-05-05 19:36 16.99052 -61.84024 8570 ft 378 kts 236°
2026-05-05 19:37 16.97958 -61.86455 7869 ft 370 kts 255°
2026-05-05 19:37 16.97689 -61.89097 7206 ft 358 kts 265°
2026-05-05 19:37 16.97183 -61.91593 6587 ft 351 kts 245°
2026-05-05 19:37 16.96041 -61.93782 6338 ft 337 kts 236°
2026-05-05 19:38 16.94772 -61.95787 6118 ft 325 kts 233°
2026-05-05 19:38 16.93513 -61.97724 5757 ft 321 kts 233°
2026-05-05 19:38 16.92397 -61.99682 5371 ft 312 kts 246°
2026-05-05 19:38 16.92020 -62.01912 4978 ft 314 kts 272°
2026-05-05 19:39 16.92552 -62.04096 4586 ft 312 kts 297°
2026-05-05 19:39 16.93890 -62.05845 4202 ft 308 kts 323°
2026-05-05 19:39 16.95744 -62.06780 4165 ft 288 kts 351°
2026-05-05 19:39 16.97652 -62.06780 4136 ft 265 kts 18°
2026-05-05 19:40 16.99197 -62.05928 4123 ft 243 kts 47°
2026-05-05 19:40 17.00138 -62.04562 3992 ft 228 kts 65°
2026-05-05 19:40 17.00800 -62.03153 3757 ft 225 kts 69°
2026-05-05 19:40 17.01410 -62.01663 3587 ft 219 kts 70°
2026-05-05 19:41 17.01990 -62.00218 3456 ft 211 kts 71°
2026-05-05 19:41 17.02546 -61.98838 3429 ft 202 kts 70°
2026-05-05 19:41 17.03087 -61.97527 3306 ft 193 kts 67°
2026-05-05 19:41 17.03648 -61.96295 3309 ft 188 kts 69°
2026-05-05 19:42 17.04262 -61.95122 3115 ft 180 kts 62°
2026-05-05 19:42 17.04908 -61.94039 2962 ft 174 kts 61°
2026-05-05 19:42 17.05546 -61.92995 2824 ft 164 kts 61°
2026-05-05 19:42 17.06143 -61.92017 2600 ft 156 kts 61°
2026-05-05 19:43 17.06720 -61.91055 2394 ft 157 kts 62°
2026-05-05 19:43 17.07287 -61.90121 2273 ft 150 kts 60°
2026-05-05 19:43 17.07831 -61.89218 1986 ft 141 kts 62°
2026-05-05 19:43 17.08327 -61.88370 1926 ft 136 kts 62°
2026-05-05 19:44 17.08831 -61.87518 1767 ft 138 kts 62°
2026-05-05 19:44 17.09331 -61.86689 1550 ft 132 kts 62°
2026-05-05 19:44 17.09830 -61.85889 1347 ft 132 kts 62°
2026-05-05 19:44 17.10317 -61.85075 1217 ft 134 kts 64°
2026-05-05 19:45 17.10772 -61.84251 1066 ft 129 kts 64°
2026-05-05 19:45 17.11214 -61.83447 828 ft 127 kts 62°
2026-05-05 19:45 17.11695 -61.82639 650 ft 133 kts 62°
2026-05-05 19:45 17.12161 -61.81838 482 ft 125 kts 61°
2026-05-05 19:46 17.12617 -61.81067 323 ft 127 kts 62°
2026-05-05 19:46 17.13091 -61.80264 134 ft 129 kts 62°
2026-05-05 19:46 17.13537 -61.79495 66 ft 113 kts 59°
2026-05-05 19:46 17.13868 -61.78932 60 ft 69 kts 59°
2026-05-05 19:47 17.14030 -61.78655 61 ft 13 kts 52°
2026-05-05 19:47 17.14091 -61.78660 64 ft 9 kts 301°
2026-05-05 19:47 17.14101 -61.78720 62 ft 9 kts 275°
2026-05-05 19:47 17.14106 -61.78782 65 ft 9 kts 275°
2026-05-05 19:48 17.14109 -61.78829 63 ft 0 kts 274°
2026-05-05 19:48 17.14110 -61.78831 63 ft 0 kts 274°
2026-05-05 19:48 17.14110 -61.78841 62 ft 0 kts 274°
2026-05-05 19:48 17.14108 -61.78850 63 ft 4 kts 253°
2026-05-05 19:49 17.14084 -61.78895 62 ft 8 kts 241°
2026-05-05 19:49 17.14066 -61.78929 58 ft 8 kts 240°
2026-05-05 19:49 17.14040 -61.78975 58 ft 2 kts 239°
2026-05-05 19:49 17.14042 -61.78991 61 ft 3 kts 294°
2026-05-05 19:50 17.14059 -61.79008 58 ft 3 kts 321°
2026-05-05 19:50 17.14072 -61.79018 61 ft 2 kts 327°
2026-05-05 19:50 17.14085 -61.79026 60 ft 2 kts 328°
2026-05-05 19:50 17.14093 -61.79031 61 ft 1 kts 328°
2026-05-05 19:51 17.14096 -61.79033 62 ft 0 kts 328°
2026-05-05 19:51 17.14096 -61.79034 62 ft 0 kts 328°
2026-05-05 19:56 17.14096 -61.79033 62 ft 0 kts 328°